Jonesboro, AR

5:53 AM CDT on May 27, 2017 (GMT -0500)
Jonesboro Municipal

Weather History for KJBR - March, 2013

Change the Weather History Date:

Saturday, March 23, 2013

  Actual Average Record
Temperature  
Mean Temperature 46 °F 52 °F  
Max Temperature 51 °F 63 °F 91 °F (1910)
Min Temperature 41 °F 42 °F 23 °F (1912)
Degree Days  
Heating Degree Days 19 13  
Month to date heating degree days 462 372  
Since 1 July heating degree days 3090 3328  
Cooling Degree Days 0 0  
Month to date cooling degree days 0 0  
Year to date cooling degree days 0 0  
Moisture  
Dew Point 40 °F    
Average Humidity 82    
Maximum Humidity 93    
Minimum Humidity 70    
Precipitation  
Precipitation 0.08 in 0.16 in 1.02 in (1958)
Month to date precipitation 1.24 3.27  
Year to date precipitation 11.03 10.42  
Snow  
Snow 0.00 in - - ()
Month to date snowfall 4.0  
Snow Depth 0.00 in    
Sea Level Pressure  
Sea Level Pressure 29.85 in    
Wind  
Wind Speed 11 mph (NE)    
Max Wind Speed 18 mph    
Max Gust Speed 23 mph    
Visibility 9 miles    
Events Rain    
T = Trace of Precipitation, MM = Missing Value Source: NWS Daily Summary

Daily Weather History Graph

Daily Weather History Graph

Search for Another Location

Airport or City:

Trip Planner

Search our weather history database for the weather conditions in past years. The results will help you decide how hot, cold, wet, or windy it might be!

Date:

Astronomy

Mar. 23, 2013 Rise Set
Actual Time 7:01 AM CDT 7:17 PM CDT
Civil Twilight 6:35 AM CDT 7:42 PM CDT
Nautical Twilight 6:06 AM CDT 8:12 PM CDT
Astronomical Twilight 5:35 AM CDT 8:43 PM CDT
Moon 3:50 PM CDT (3/23) 4:31 AM CDT (3/23)
Length of Visible Light 13h 06m
Length of Day
12h 15m
Waxing Gibbous, 85% of the Moon is Illuminated
Mar 23
Waxing Gibbous
Mar 27
Full
Apr 2
Last Quarter
Apr 10
New
Apr 18
First Quarter

Hourly Weather History & Observations

Time (CDT) Temp. Windchill Dew Point Humidity Pressure Visibility Wind Dir Wind Speed Gust Speed Precip Events Conditions
12:53 AM 42.1 °F 35.7 °F 35.1 °F 76% 29.95 in 10.0 mi NE 11.5 mph - N/A   Overcast
1:33 AM 42.8 °F 37.0 °F 35.6 °F 76% 29.92 in 10.0 mi NE 10.4 mph - N/A   Overcast
1:53 AM 42.1 °F 35.2 °F 35.1 °F 76% 29.92 in 10.0 mi NE 12.7 mph - N/A   Overcast
2:53 AM 42.1 °F 36.6 °F 36.0 °F 79% 29.91 in 10.0 mi NE 9.2 mph - N/A   Overcast
3:29 AM 42.8 °F 37.0 °F 35.6 °F 76% 29.89 in 10.0 mi NE 10.4 mph - N/A   Overcast
3:53 AM 42.1 °F 37.1 °F 36.0 °F 79% 29.90 in 10.0 mi NE 8.1 mph - N/A   Overcast
4:53 AM 42.1 °F 36.6 °F 34.0 °F 73% 29.91 in 10.0 mi NE 9.2 mph - N/A   Overcast
5:53 AM 42.1 °F 36.1 °F 34.0 °F 73% 29.92 in 10.0 mi NNE 10.4 mph - N/A   Overcast
6:01 AM 42.8 °F 36.6 °F 33.8 °F 70% 29.92 in 10.0 mi NNE 11.5 mph - N/A   Overcast
6:53 AM 42.1 °F 36.1 °F 33.1 °F 70% 29.93 in 10.0 mi NE 10.4 mph - N/A   Overcast
7:00 AM 42.8 °F 37.0 °F 33.8 °F 70% 29.93 in 10.0 mi NE 10.4 mph - N/A   Overcast
7:53 AM 42.1 °F 36.1 °F 34.0 °F 73% 29.93 in 10.0 mi NE 10.4 mph - N/A   Overcast
8:53 AM 43.0 °F 37.7 °F 35.1 °F 74% 29.94 in 10.0 mi NE 9.2 mph - N/A   Overcast
9:33 AM 42.8 °F 36.6 °F 35.6 °F 76% 29.95 in 10.0 mi NE 11.5 mph - N/A   Overcast
9:53 AM 43.0 °F 36.8 °F 35.1 °F 74% 29.95 in 10.0 mi NNE 11.5 mph - N/A   Overcast
10:45 AM 46.4 °F 40.1 °F 37.4 °F 71% 29.92 in 10.0 mi NE 15.0 mph - N/A   Overcast
10:53 AM 46.0 °F 39.0 °F 37.9 °F 73% 29.91 in 10.0 mi NE 17.3 mph 23.0 mph N/A   Overcast
11:53 AM 48.0 °F - 41.0 °F 77% 29.91 in 10.0 mi ENE 13.8 mph 21.9 mph N/A   Overcast
12:53 PM 48.9 °F - 42.1 °F 77% 29.90 in 10.0 mi ENE 13.8 mph - N/A   Overcast
1:10 PM 48.2 °F - 42.8 °F 82% 29.89 in 10.0 mi ENE 12.7 mph - N/A   Overcast
1:53 PM 50.0 °F - 42.1 °F 74% 29.87 in 9.0 mi ENE 15.0 mph - N/A   Overcast
2:24 PM 51.8 °F - 42.8 °F 71% 29.83 in 9.0 mi ENE 17.3 mph - N/A   Overcast
2:37 PM 50.0 °F - 42.8 °F 76% 29.84 in 9.0 mi ENE 16.1 mph - N/A   Overcast
2:53 PM 50.0 °F - 42.1 °F 74% 29.83 in 10.0 mi ENE 15.0 mph - N/A   Overcast
3:53 PM 50.0 °F - 43.0 °F 77% 29.81 in 10.0 mi NE 12.7 mph - N/A   Overcast
4:53 PM 50.0 °F - 43.0 °F 77% 29.76 in 10.0 mi NE 11.5 mph - 0.00 in   Overcast
5:53 PM 50.0 °F - 43.0 °F 77% 29.79 in 10.0 mi NNE 8.1 mph - 0.00 in Rain Light Rain
6:53 PM 48.0 °F - 41.0 °F 77% 29.76 in 10.0 mi NE 10.4 mph - 0.00 in   Overcast
7:53 PM 46.9 °F - 43.0 °F 86% 29.74 in 10.0 mi ENE 11.5 mph - 0.00 in Rain Light Rain
8:53 PM 46.9 °F - 44.1 °F 90% 29.75 in 8.0 mi ENE 9.2 mph - 0.04 in Rain Light Rain
9:53 PM 46.9 °F - 45.0 °F 93% 29.73 in 6.0 mi ENE 9.2 mph - 0.02 in Rain Light Rain
10:01 PM 46.4 °F 41.5 °F 44.6 °F 93% 29.72 in 7.0 mi ENE 10.4 mph - N/A Rain Light Rain
10:49 PM 46.4 °F 42.4 °F 44.6 °F 93% 29.72 in 7.0 mi North 8.1 mph - 0.02 in Rain Light Rain
10:53 PM 46.9 °F - 45.0 °F 93% 29.72 in 8.0 mi North 6.9 mph - 0.02 in Rain Light Rain
11:33 PM 48.2 °F - 46.4 °F 93% 29.70 in 8.0 mi NNE 6.9 mph - 0.00 in   Overcast
11:53 PM 48.0 °F - 46.9 °F 96% 29.70 in 8.0 mi NNE 6.9 mph - 0.00 in   Overcast